Location: Tierra del Sol
(32.6128°N, 116.3319°W)
Time: 05:01:09
(UTC-07:00)

Envisat - Visible Passes

Search period start: 22 March 2019 00:00
Search period end: 01 April 2019 00:00
Orbit: 764 x 766 km, 98.2° (Epoch: 22 March)

Date Brightness Start Highest point End Pass type
(mag) Time Alt. Az. Time Alt. Az. Time Alt. Az.
22 Mar 4.2 19:57:02 10° S 20:01:52 45° W 20:06:43 10° NNW visible
23 Mar 3.0 19:20:04 10° SSE 19:25:07 74° ENE 19:30:11 10° N visible
24 Mar 5.3 20:23:27 10° SSW 20:27:30 24° W 20:31:35 10° NW visible
25 Mar 3.7 19:45:39 10° S 19:50:38 59° W 19:55:39 10° NNW visible
26 Mar 6.0 20:51:06 10° WSW 20:53:14 13° W 20:55:21 10° WNW visible
27 Mar 4.9 20:11:46 10° SSW 20:16:14 31° W 20:20:43 10° NW visible
28 Mar 3.2 19:34:21 10° S 19:39:24 77° WSW 19:44:30 10° NNW visible
29 Mar 5.8 20:38:44 10° SW 20:41:55 17° W 20:45:06 10° NW visible
30 Mar 4.4 20:00:14 10° SSW 20:04:58 40° W 20:09:45 10° NNW visible
31 Mar 3.0 19:23:08 10° SSE 19:28:12 82° ENE 19:33:18 10° N visible
